Change the Weather History Date:

Wednesday, April 24, 2013

  Actual Average (KGRB) Record (KGRB)
Temperature  
Mean Temperature 42 °F 47 °F  
Max Temperature 51 °F 58 °F 86 °F (1990)
Min Temperature 32 °F 37 °F 21 °F (1956)
Degree Days  
Heating Degree Days 24 18  
Month to date heating degree days 539  
Since 1 July heating degree days 7439  
Cooling Degree Days 0 0  
Month to date cooling degree days 0  
Year to date cooling degree days 0  
Moisture  
Dew Point 25 °F    
Average Humidity 56    
Maximum Humidity 80    
Minimum Humidity 34    
Precipitation  
Precipitation 0.00 in 0.09 in 1.75 in (1994)
Month to date precipitation 2.09  
Year to date precipitation 6.18  
Snow  
Snow 0.00 in 0.10 in 4.00 in (1907)
Month to date snowfall 2.7  
Since 1 July snowfall 51.0  
Snow Depth -    
Sea Level Pressure  
Sea Level Pressure 29.96 in    
Wind  
Wind Speed 6 mph (West)    
Max Wind Speed 15 mph    
Max Gust Speed 24 mph    
Visibility 10 miles    
Events      
T = Trace of Precipitation, MM = Missing Value Source: NWS Daily Summary

Daily Weather History Graph

Daily Weather History Graph

Search for Another Location

Airport or City:

Trip Planner

Search our weather history database for the weather conditions in past years. The results will help you decide how hot, cold, wet, or windy it might be!

Date:

Astronomy

Apr. 24, 2013 Rise Set
Actual Time 5:54 AM CDT 7:51 PM CDT
Civil Twilight 5:23 AM CDT 8:22 PM CDT
Nautical Twilight 4:44 AM CDT 9:01 PM CDT
Astronomical Twilight 4:02 AM CDT 9:43 PM CDT
Moon 6:52 PM CDT (4/24) 5:01 AM CDT (4/24)
Length of Visible Light 14h 59m
Length of Day
13h 56m
Waxing Gibbous, 98% of the Moon is Illuminated
Apr 24
Waxing Gibbous
Apr 25
Full
May 2
Last Quarter
May 9
New
May 17
First Quarter

Hourly Weather History & Observations

Time (CDT) Temp. Windchill Dew Point Humidity Pressure Visibility Wind Dir Wind Speed Gust Speed Precip Events Conditions
12:15 AM 33.8 °F 30.8 °F 26.6 °F 75% 30.00 in 10.0 mi WNW 3.5 mph - N/A   Clear
12:35 AM 33.8 °F - 26.6 °F 75% 29.99 in 10.0 mi Calm Calm - N/A   Clear
12:55 AM 32.0 °F 28.7 °F 26.6 °F 80% 29.99 in 10.0 mi WNW 3.5 mph - N/A   Clear
1:15 AM 32.0 °F - 26.6 °F 80% 29.99 in 10.0 mi Calm Calm - N/A   Clear
1:35 AM 32.0 °F 28.7 °F 26.6 °F 80% 29.99 in 10.0 mi WNW 3.5 mph - N/A   Clear
1:55 AM 32.0 °F 27.5 °F 26.6 °F 80% 29.98 in 10.0 mi WNW 4.6 mph - N/A   Clear
2:35 AM 32.0 °F 27.5 °F 26.6 °F 80% 29.98 in 10.0 mi WNW 4.6 mph - N/A   Clear
2:55 AM 32.0 °F 27.5 °F 26.6 °F 80% 29.97 in 10.0 mi WNW 4.6 mph - N/A   Clear
3:15 AM 32.0 °F 27.5 °F 26.6 °F 80% 29.98 in 10.0 mi West 4.6 mph - N/A   Clear
3:35 AM 32.0 °F 27.5 °F 26.6 °F 80% 29.97 in 10.0 mi West 4.6 mph - N/A   Clear
3:55 AM 32.0 °F 26.4 °F 26.6 °F 80% 29.98 in 10.0 mi West 5.8 mph - N/A   Clear
4:15 AM 32.0 °F 27.5 °F 26.6 °F 80% 29.98 in 10.0 mi WNW 4.6 mph - N/A   Clear
4:35 AM 32.0 °F 27.5 °F 26.6 °F 80% 29.98 in 10.0 mi WNW 4.6 mph - N/A   Clear
4:55 AM 32.0 °F 28.7 °F 26.6 °F 80% 29.98 in 10.0 mi West 3.5 mph - N/A   Clear
5:15 AM 32.0 °F - 26.6 °F 80% 29.98 in 10.0 mi Calm Calm - N/A   Clear
5:35 AM 32.0 °F - 24.8 °F 75% 29.98 in 10.0 mi Calm Calm - N/A   Clear
5:55 AM 32.0 °F - 26.6 °F 80% 29.98 in 10.0 mi Calm Calm - N/A   Clear
6:15 AM 32.0 °F 28.7 °F 26.6 °F 80% 29.98 in 10.0 mi West 3.5 mph - N/A   Clear
6:35 AM 32.0 °F 27.5 °F 26.6 °F 80% 29.99 in 10.0 mi West 4.6 mph - N/A   Clear
6:55 AM 32.0 °F - 26.6 °F 80% 29.99 in 10.0 mi Calm Calm - N/A   Clear
7:15 AM 32.0 °F 28.7 °F 26.6 °F 80% 29.99 in 10.0 mi West 3.5 mph - N/A   Clear
7:35 AM 32.0 °F 27.5 °F 26.6 °F 80% 29.99 in 10.0 mi West 4.6 mph - N/A   Clear
7:55 AM 32.0 °F 27.5 °F 26.6 °F 80% 29.99 in 10.0 mi West 4.6 mph - N/A   Clear
8:15 AM 35.6 °F 29.9 °F 26.6 °F 70% 29.99 in 10.0 mi West 6.9 mph - N/A   Clear
8:35 AM 35.6 °F 29.9 °F 28.4 °F 75% 30.00 in 10.0 mi West 6.9 mph - N/A   Clear
8:55 AM 37.4 °F 32.1 °F 26.6 °F 65% 30.00 in 10.0 mi West 6.9 mph - N/A   Clear
9:15 AM 39.2 °F 33.6 °F 26.6 °F 61% 29.99 in 10.0 mi NW 8.1 mph - N/A   Clear
9:35 AM 41.0 °F 37.1 °F 26.6 °F 57% 29.99 in 10.0 mi NW 5.8 mph - N/A   Clear
9:55 AM 41.0 °F 35.8 °F 24.8 °F 53% 29.98 in 10.0 mi WNW 8.1 mph - N/A   Clear
10:15 AM 42.8 °F 36.2 °F 23.0 °F 46% 29.98 in 10.0 mi WNW 12.7 mph 16.1 mph N/A   Clear
10:35 AM 44.6 °F 39.7 °F 21.2 °F 39% 29.98 in 10.0 mi WNW 9.2 mph 18.4 mph N/A   Clear
10:55 AM 44.6 °F 39.2 °F 21.2 °F 39% 29.97 in 10.0 mi WNW 10.4 mph - N/A   Clear
11:15 AM 44.6 °F 38.8 °F 21.2 °F 39% 29.97 in 10.0 mi West 11.5 mph 16.1 mph N/A   Clear
11:35 AM 44.6 °F 40.2 °F 19.4 °F 37% 29.96 in 10.0 mi WNW 8.1 mph 16.1 mph N/A   Clear
11:55 AM 46.4 °F 41.5 °F 21.2 °F 37% 29.96 in 10.0 mi WNW 10.4 mph 17.3 mph N/A   Clear
12:15 PM 46.4 °F 41.5 °F 21.2 °F 37% 29.95 in 10.0 mi WSW 10.4 mph 16.1 mph N/A   Clear
12:35 PM 46.4 °F 41.1 °F 21.2 °F 37% 29.94 in 10.0 mi NW 11.5 mph 18.4 mph N/A   Clear
12:55 PM 46.4 °F 41.1 °F 19.4 °F 34% 29.94 in 10.0 mi West 11.5 mph 19.6 mph N/A   Clear
1:15 PM 48.2 °F - 21.2 °F 34% 29.94 in 10.0 mi WNW 6.9 mph 20.7 mph N/A   Clear
1:55 PM 50.0 °F - 23.0 °F 35% 29.93 in 10.0 mi NW 12.7 mph 20.7 mph N/A   Clear
2:15 PM 50.0 °F - 23.0 °F 35% 29.92 in 10.0 mi WNW 15.0 mph 21.9 mph N/A   Clear
2:35 PM 50.0 °F - 24.8 °F 37% 29.93 in 10.0 mi West 15.0 mph 21.9 mph N/A   Clear
2:55 PM 50.0 °F - 23.0 °F 35% 29.93 in 10.0 mi WNW 11.5 mph 19.6 mph N/A   Clear
3:15 PM 50.0 °F - 23.0 °F 35% 29.93 in 10.0 mi WNW 11.5 mph 24.2 mph N/A   Clear
3:35 PM 50.0 °F - 23.0 °F 35% 29.93 in 10.0 mi West 12.7 mph 24.2 mph N/A   Scattered Clouds
3:55 PM 50.0 °F - 23.0 °F 35% 29.93 in 10.0 mi West 12.7 mph 18.4 mph N/A   Scattered Clouds
4:15 PM 51.8 °F - 24.8 °F 35% 29.93 in 10.0 mi West 11.5 mph 18.4 mph N/A   Scattered Clouds
4:35 PM 50.0 °F - 23.0 °F 35% 29.93 in 10.0 mi West 13.8 mph 17.3 mph N/A   Mostly Cloudy
4:55 PM 50.0 °F - 23.0 °F 35% 29.93 in 10.0 mi WNW 10.4 mph 21.9 mph N/A   Mostly Cloudy
5:15 PM 50.0 °F - 23.0 °F 35% 29.93 in 10.0 mi West 9.2 mph 23.0 mph N/A   Scattered Clouds
5:55 PM 50.0 °F - 23.0 °F 35% 29.92 in 10.0 mi WNW 9.2 mph 16.1 mph N/A   Mostly Cloudy
6:15 PM 50.0 °F - 24.8 °F 37% 29.92 in 10.0 mi West 10.4 mph 17.3 mph N/A   Scattered Clouds
6:35 PM 50.0 °F - 23.0 °F 35% 29.93 in 10.0 mi WSW 13.8 mph 18.4 mph N/A   Scattered Clouds
6:55 PM 50.0 °F - 23.0 °F 35% 29.92 in 10.0 mi West 11.5 mph - N/A   Scattered Clouds
7:15 PM 50.0 °F - 23.0 °F 35% 29.92 in 10.0 mi West 10.4 mph 17.3 mph N/A   Clear
7:35 PM 48.2 °F - 23.0 °F 37% 29.93 in 10.0 mi WSW 8.1 mph - N/A   Scattered Clouds
7:55 PM 48.2 °F - 24.8 °F 40% 29.93 in 10.0 mi WSW 6.9 mph - N/A   Mostly Cloudy
8:15 PM 48.2 °F - 24.8 °F 40% 29.93 in 10.0 mi WSW 9.2 mph - N/A   Overcast
8:35 PM 46.4 °F 43.5 °F 26.6 °F 46% 29.94 in 10.0 mi WSW 5.8 mph - N/A   Mostly Cloudy
8:55 PM 46.4 °F - 26.6 °F 46% 29.94 in 10.0 mi Calm Calm - N/A   Scattered Clouds
10:15 PM 44.6 °F - 28.4 °F 53% 29.93 in 10.0 mi Calm Calm - N/A   Overcast
10:35 PM 44.6 °F - 28.4 °F 53% 29.93 in 10.0 mi Calm Calm - N/A   Overcast
10:55 PM 44.6 °F 43.1 °F 28.4 °F 53% 29.92 in 10.0 mi South 3.5 mph - N/A   Mostly Cloudy
11:15 PM 44.6 °F 43.1 °F 28.4 °F 53% 29.91 in 10.0 mi South 3.5 mph - N/A   Scattered Clouds
11:35 PM 44.6 °F 43.1 °F 28.4 °F 53% 29.91 in 10.0 mi South 3.5 mph - N/A   Mostly Cloudy
11:55 PM 44.6 °F 42.2 °F 28.4 °F 53% 29.90 in 10.0 mi SSW 4.6 mph - N/A   Overcast